Regional Weather Roundup
Issued by NWS

Home | Current Version | Previous Version | Text Only | Print | Product List | Glossary Off
Versions: 1 2 3 4 5 6 7 8 9 10 11 12 13 14 15 16 17 18 19 20 21 22 23 24 25 26 27 28 29 30 31 32 33 34 35 36 37 38 39 40 41 42 43 44 45 46 47 48 49 50

173
ASUS44 KJAN 252303
RWRMS

MISSISSIPPI HOURLY WEATHER ROUNDUP
NATIONAL WEATHER SERVICE JACKSON MS
500 PM CST SUN JAN 25 2015

NOTE: "FAIR: INDICATES FEW OR NO CLOUDS BELOW 12,000 FEET WITH NO
SIGNIFICANT WEATHER AND/OR OBSTRUCTIONS TO VISIBILITY.

MSZ001>002-007>008-010>013-018>021-025>028-034>036-260000-
NORTHWEST MISSISSIPPI

CITY           SKY/WX    TMP DP  RH WIND       PRES   REMARKS
CLARKSDALE     CLOUDY    54  39  58 W14       29.81R
CLEVELAND      CLOUDY    55  40  56 NW16G24   29.81R
GREENWOOD      PTCLDY    57  42  57 W7        29.79S
GREENVILLE     MOCLDY    58  37  45 NW21G29   29.82R
GRENADA        CLOUDY    54  43  66 NW9       29.79R
OLIVE BRANCH   MOCLDY    45  45 100 SW6       29.77R
OXFORD         MOCLDY    50  41  71 NW12G18   29.78R
TUNICA         MOCLDY    52  39  62 W21       29.80R
$$

MSZ003>006-009-014>017-022>024-029>033-037>039-260000-
NORTHEAST MISSISSIPPI

CITY           SKY/WX    TMP DP  RH WIND       PRES   REMARKS
COLUMBUS AFB   PTCLDY    58  39  49 W12       29.75R
CORINTH        HVY RAIN  46  41  81 W25G40    29.77R
GOLDN TRIANGLE PTCLDY    57  39  51 W14G29    29.75R
STARKVILLE     FAIR      55  39  54 W9G17     29.77S
TUPELO         CLOUDY    56  39  53 W10       29.75R
$$

MSZ040-058-260000-
CENTRAL MISSISSIPPI

CITY           SKY/WX    TMP DP  RH WIND       PRES   REMARKS
JACKSON INTL   MOCLDY    62  36  37 W14G24    29.83R
JACKSON HAWKNS CLEAR     61  36  39 W18G26    29.83R
MERIDIAN KEY   MOCLDY    63  37  38 W10G20    29.78R
MERIDIAN NAS   MOCLDY    63  37  38 SW9       29.77R
RAYMOND        FAIR      61  55  82 MISG      29.83R
VICKSBURG      CLEAR     62  33  33 W14G28    29.85R
$$

MSZ059>079-260000-
SOUTH MISSISSIPPI

CITY           SKY/WX    TMP DP  RH WIND       PRES   REMARKS
BROOKHAVEN     MOCLDY    64  43  45 W9        29.85R
HATTIESBURG    CLEAR     64  40  41 SW8       29.83R
MCCOMB         CLEAR     65  40  39 W12G20    29.85R
NATCHEZ        CLEAR     64  37  36 W14G23    29.88R
PINE BELT      PTCLDY    64  37  36 SW7       29.83R
$$

MSZ080>082-260000-
COASTAL MISSISSIPPI

CITY           SKY/WX    TMP DP  RH WIND       PRES   REMARKS
BAY ST LOUIS   CLEAR     63  34  34 W9G23     29.86F
BILOXI         CLEAR     60  41  50 W14G25    29.85F
PASCAGOULA     CLEAR     59  46  62 SW10      29.86F
GULFPORT       CLEAR     62  37  39 SW14G20   29.85F
$$



USA.gov is the U.S. government's official web portal to all federal, state and local government web resources and services.